Weather History for Fort Leonard Wood, MO

Change the Weather History Date:

Saturday, July 26, 2014

  Actual Average Record
Temperature  
Mean Temperature 85 °F -  
Max Temperature 98 °F 85 °F 100 °F (1997)
Min Temperature 73 °F 69 °F 55 °F (2004)
Cooling Degree Days 20    
Growing Degree Days 35 (Base 50)    
Moisture  
Dew Point 73 °F    
Average Humidity 72    
Maximum Humidity 98    
Minimum Humidity 42    
Precipitation  
Precipitation 0.00 in - - ()
Sea Level Pressure  
Sea Level Pressure 29.89 in    
Wind  
Wind Speed 6 mph (SSW)    
Max Wind Speed 10 mph    
Max Gust Speed 16 mph    
Visibility 10 miles    
Events      
Averages and records for this station are not official NWS values.
T = Trace of Precipitation, MM = Missing Value Source: NWS Daily Summary

Daily Weather History Graph

Daily Weather History Graph

Search for Another Location

Airport:

Trip Planner

Search our weather history database for the weather conditions in past years. The results will help you decide how hot, cold, wet, or windy it might be!

Date:

Astronomy

Jul. 26, 2014 Rise Set
Actual Time 6:07 AM CDT 8:22 PM CDT
Civil Twilight 5:37 AM CDT 8:52 PM CDT
Nautical Twilight 5:01 AM CDT 9:28 PM CDT
Astronomical Twilight 4:21 AM CDT 10:07 PM CDT
Moon 5:58 AM CDT (7/26) 7:59 PM CDT (7/26)
Length of Visible Light 15h 14m
Length of Day
14h 15m
Waning Crescent, 0% of the Moon is Illuminated
Jul 26
Waning Crescent
Jul 26
New
Aug 3
First Quarter
Aug 10
Full
Aug 17
Last Quarter

Hourly Weather History & Observations

Time (CDT) Temp. Heat Index Dew Point Humidity Pressure Visibility Wind Dir Wind Speed Gust Speed Precip Events Conditions
12:58 AM 73.8 °F - 71.2 °F 92% 29.92 in 10.0 mi SSE 5.8 mph - N/A   Clear
1:58 AM 73.2 °F - 71.8 °F 95% 29.91 in 10.0 mi South 5.8 mph - N/A   Clear
2:58 AM 73.0 °F - 72.5 °F 98% 29.88 in 10.0 mi South 6.9 mph - N/A   Clear
3:58 AM 73.6 °F - 72.5 °F 96% 29.88 in 10.0 mi South 5.8 mph - N/A   Mostly Cloudy
4:58 AM 74.1 °F - 72.3 °F 94% 29.89 in 10.0 mi SSW 6.9 mph - N/A   Mostly Cloudy
5:58 AM 74.1 °F - 72.0 °F 93% 29.91 in 10.0 mi SSW 5.8 mph - N/A   Mostly Cloudy
6:58 AM 75.0 °F - 72.3 °F 91% 29.91 in 10.0 mi Variable 5.8 mph - N/A   Partly Cloudy
7:58 AM 77.5 °F - 72.7 °F 85% 29.91 in 10.0 mi SW 8.1 mph - N/A   Partly Cloudy
8:58 AM 79.2 °F - 73.4 °F 82% 29.93 in 10.0 mi Variable 6.9 mph - N/A   Partly Cloudy
10:58 AM 88.0 °F 96.0 °F 73.6 °F 62% 29.91 in 10.0 mi SW 10.4 mph - N/A   Clear
11:58 AM 90.3 °F 98.7 °F 73.0 °F 57% 29.90 in 10.0 mi West 8.1 mph - N/A   Clear
1:58 PM 95.7 °F 104.8 °F 72.5 °F 47% 29.89 in 10.0 mi SW 10.4 mph 16.1 mph N/A   Partly Cloudy
2:58 PM 97.3 °F 105.6 °F 71.4 °F 43% 29.88 in 10.0 mi Variable 6.9 mph - N/A   Partly Cloudy
3:58 PM 96.6 °F 104.7 °F 71.4 °F 44% 29.87 in 10.0 mi SW 8.1 mph - N/A   Mostly Cloudy
4:58 PM 97.2 °F 104.5 °F 70.3 °F 42% 29.87 in 10.0 mi Variable 6.9 mph - N/A   Scattered Clouds
5:58 PM 92.7 °F 99.9 °F 71.4 °F 50% 29.86 in 10.0 mi SW 5.8 mph - N/A   Scattered Clouds
6:58 PM 90.1 °F 98.9 °F 73.4 °F 58% 29.87 in 10.0 mi SSW 3.5 mph - N/A   Partly Cloudy
7:58 PM 87.6 °F 97.1 °F 74.8 °F 66% 29.87 in 10.0 mi South 4.6 mph - N/A   Partly Cloudy
8:58 PM 84.9 °F 92.1 °F 73.8 °F 69% 29.87 in 10.0 mi SSW 4.6 mph - N/A   Mostly Cloudy
9:58 PM 83.7 °F 90.7 °F 74.3 °F 73% 29.88 in 10.0 mi Variable 3.5 mph - N/A   Clear
10:58 PM 82.2 °F 88.5 °F 74.5 °F 77% 29.87 in 10.0 mi Variable 5.8 mph - N/A   Clear
11:58 PM 80.8 °F 85.6 °F 73.4 °F 78% 29.89 in 10.0 mi Variable 5.8 mph - N/A   Clear